Home > Weather > Narowal > Past weeks

Flag for Pakistan Past Weather in Narowal, Pakistan — Yesterday and Last 2 Weeks

Now
77 °F

Rain. Mostly cloudy.


Feels Like: 78 °F
Forecast: 80 / 92 °F
Wind: 3 mph from Northeast

Location: Amritsar Airport

Current Time: Aug 25, 2016 at 4:40:09 AM

Latest Report: Aug 25, 2016 at 4:00 AM


Visibility: 1 mi

Pressure: 29.71 "Hg

Humidity: 100%

Dew Point: 77 °F

Location of NarowalLocation

Past Weather in Narowal — Graph

°F

Narowal Temperature Yesterday

Maximum temperature yesterday: 90 °F (at 9:00 AM)
Minimum temperature yesterday: 73 °F (at 4:00 PM)
Average temperature yesterday: 80 °F

High & Low Weather Summary for the Past Weeks

 TemperatureHumidityPressure
High95 °F (Aug 13, 2:30 PM)100% (Aug 10, 3:00 AM)29.71 "Hg (Aug 10, 3:00 AM)
Low73 °F (Aug 24, 4:00 PM)50% (Aug 19, 3:30 PM)29.42 "Hg (Aug 16, 5:30 PM)
Average85 °F91%29.58 "Hg
* Reported Aug 10 3:00 AM — Aug 25 3:30 AM, Narowal, Weather by CustomWeather, © 2016

Note: Actual official high and low records may vary slightly from our data, if they occured in-between our weather recording intervals... More about our weather records

Advertising

Narowal Weather History for the Previous 24 Hours

Scroll right to see more
 ConditionsComfort  
Time TempWeatherWind HumidityBarometerVisibility
3:30 AM
Thu, Aug 25
75 °FFog.5 mph100%29.71 "Hg1 mi
3:00 AM75 °FFog.No wind100%29.71 "Hg1 mi
2:30 AM75 °FFog.6 mph100%29.71 "Hg1 mi
2:00 AM75 °FFog.5 mph100%29.71 "Hg1 mi
1:30 AM75 °FFog.5 mph100%29.71 "Hg1 mi
1:00 AM75 °FFog.No wind100%29.71 "Hg1 mi
12:30 AM75 °FFog.No wind100%29.71 "Hg1 mi
12:00 AM75 °FFog.No wind100%29.71 "Hg1 mi
11:30 PM
Wed, Aug 24
75 °FFog.3 mph100%29.71 "Hg1 mi
11:00 PM75 °FFog.1 mph100%29.71 "Hg1 mi
10:30 PM75 °FFog.No wind100%29.71 "Hg1 mi
10:00 PM75 °FFog.No wind100%29.71 "Hg1 mi
9:30 PM75 °FFog.2 mph100%29.71 "Hg1 mi
9:00 PM75 °FFog.7 mph100%29.68 "Hg1 mi
8:30 PM75 °FFog.3 mph100%29.68 "Hg1 mi
8:00 PM75 °FFog.3 mph100%29.65 "Hg2 mi
7:30 PM75 °FFog.No wind100%29.65 "Hg2 mi
7:00 PM75 °FFog.No wind100%29.65 "Hg2 mi
6:30 PM75 °FFog.No wind100%29.65 "Hg2 mi
6:00 PM75 °FFog.No wind100%29.65 "Hg2 mi
5:30 PM75 °FThunderstorms. More clouds than sun.No wind100%29.65 "Hg2 mi
4:30 PM73 °FThunderstorms. More clouds than sun.7 mph100%29.65 "Hg2 mi
4:00 PM73 °FThunderstorms. More clouds than sun.5 mph100%29.65 "Hg2 mi
3:00 PM75 °FThunderstorms. More clouds than sun.7 mph100%29.68 "Hg2 mi
2:30 PM75 °FThunderstorms. More clouds than sun.6 mph100%29.68 "Hg2 mi
2:00 PM77 °FThunderstorms. More clouds than sun.6 mph100%29.68 "HgN/A
11:00 AM75 °FThunderstorms. More clouds than sun.12 mph100%29.71 "Hg1 mi
10:00 AM90 °FFog.1 mph84%29.68 "Hg3 mi
9:30 AM88 °FFog.No wind89%29.68 "Hg2 mi
9:00 AM90 °FFog.No wind89%29.68 "Hg2 mi
8:30 AM88 °FFog.No wind94%29.68 "Hg1 mi
8:00 AM86 °FFog.No wind100%29.68 "Hg1 mi
7:30 AM84 °FFog.No wind100%29.65 "Hg1 mi
7:00 AM84 °FFog.No wind100%29.65 "Hg1 mi
6:00 AM84 °FFog.2 mph100%29.65 "Hg1 mi
5:00 AM84 °FFog.No wind100%29.62 "Hg1 mi
4:30 AM84 °FFog.No wind100%29.62 "Hg1 mi
4:00 AM84 °FFog.No wind100%29.62 "Hg1 mi
Weather by CustomWeather, © 2016

See weather overviewHow to use our weather pages